Hourly Data Report for October 14, 2016

All times are specified in Local Standard Time (LST). Add 1 hour to adjust for Daylight Saving Time where and when it is observed.

TORONTO INTL A
ONTARIO

43°40'36.000" N
79°37'50.000" W
173.40 m
6158731
71624
YYZ

Download Data

Hourly Data (October 2016)
Hourly Data Report for October 14, 2016
Temp Definition
°C
Dew Point Temp Definition
°C
Rel Hum Definition
%
Wind Dir Definition
10's deg

Wind Spd Definition
km/h
Visibility Definition
km
Stn Press Definition
kPa
Hmdx Definition


Wind Chill Definition


Weather Definition


TIME
00:00 Legend Double Dagger 5.5 0.5 70 36 2 24.1 100.64     LegendNANA
01:00 Legend Double Dagger 5.8 0.2 67 6 3 24.1 100.66     Clear
02:00 Legend Double Dagger 5.5 0.3 69 36 1 24.1 100.69     LegendNANA
03:00 Legend Double Dagger 4.9 0.7 74 19 6 24.1 100.65     LegendNANA
04:00 Legend Double Dagger 6.6 1.5 70 32 5 24.1 100.68     Mostly Cloudy
05:00 Legend Double Dagger 6.1 2.0 75 26 8 24.1 100.72     LegendNANA
06:00 Legend Double Dagger 7.3 1.0 64 29 6 24.1 100.76     LegendNANA
07:00 Legend Double Dagger 7.7 0.7 61 31 5 24.1 100.80     Mostly Cloudy
08:00 Legend Double Dagger 9.1 1.5 59 24 4 24.1 100.83     LegendNANA
09:00 Legend Double Dagger 11.1 1.7 52 19 9 24.1 100.86     LegendNANA
10:00 Legend Double Dagger 12.4 2.0 49 18 13 24.1 100.84     Mainly Clear
11:00 Legend Double Dagger 13.2 2.2 47 18 5 24.1 100.80     LegendNANA
12:00 Legend Double Dagger 13.3 2.9 49 16 9 24.1 100.75     LegendNANA
13:00 Legend Double Dagger 13.9 3.4 49 14 13 24.1 100.66     Mainly Clear
14:00 Legend Double Dagger 14.0 1.7 43 13 16 24.1 100.62     LegendNANA
15:00 Legend Double Dagger 14.3 2.6 45 17 16 24.1 100.60     LegendNANA
16:00 Legend Double Dagger 13.8 4.2 52 14 13 24.1 100.57     Mainly Clear
17:00 Legend Double Dagger 13.1 4.1 54 16 13 24.1 100.58     LegendNANA
18:00 Legend Double Dagger 12.2 4.5 59 15 14 24.1 100.56     LegendNANA
19:00 Legend Double Dagger 12.3 4.6 59 15 12 24.1 100.57     Mostly Cloudy
20:00 Legend Double Dagger 12.1 4.9 61 14 9 24.1 100.54     LegendNANA
21:00 Legend Double Dagger 12.0 5.2 63 15 9 24.1 100.49     LegendNANA
22:00 Legend Double Dagger 12.2 5.4 63 16 13 24.1 100.41     Mostly Cloudy
23:00 Legend Double Dagger 11.6 5.1 64 15 9 24.1 100.43     LegendNANA

Notes on Data Quality.

Legend

  • E = Estimated
  • M = Missing
  • NA = Not Available
  • ‡ = Partner data that is not subject to review by the National Climate Archives
Date modified: